カタログに戻る

STARLINK-34490

運用中通信VLEO
NORAD 64478·PAYLOAD·🇺🇸 United States

打ち上げ Jun 23, 2025 から Cape Canaveral Space Force Station

Loading…

次のパス (今後24時間)

TLE

最新Source: CelesTrak SupGP

元期: Sep 15, 2026, 03:41 UTC

1 64478C 25133G   26258.15395833  .00033274  00000+0  98302-3 0  2584
2 64478  53.1572 314.4109 0001229  91.7570 114.6721 15.34376036    10

AllMySatでSTARLINK-34490をリアルタイム追跡

Download on the App Store